GFSFLT2_sfc_30mbdewp_141.txt.gz
Dewpoint
67 69 69 70 70 70 69 69 69 69 70 70 70 69 69 69 69 69 69 68 68 68 68 68 68 67 67 66 65 64 65 63
66 67 68 68 69 70 69 69 68 69 70 70 69 68 68 68 68 69 68 68 68 68 67 68 68 67 66 66 65 64 64 62
64 64 65 66 67 68 69 69 68 68 69 69 68 66 66 67 65 66 67 67 68 68 67 67 67 66 66 66 65 62 63 62
61 63 63 64 64 67 67 66 66 66 66 67 67 64 64 62 64 66 66 67 67 67 67 66 66 65 65 65 64 63 59 62
56 60 62 62 61 63 65 64 64 64 65 66 65 65 65 63 64 64 64 65 64 65 65 64 62 62 61 62 63 64 63 63
34 58 59 62 60 60 61 61 65 62 64 67 65 65 66 62 60 61 61 61 60 61 61 61 62 63 62 63 64 64 64 63
23 33 56 59 62 58 60 62 64 67 66 66 67 64 64 61 60 59 58 59 60 60 60 61 63 63 63 62 63 64 64 64
23 25 34 57 60 61 60 62 62 65 67 66 67 65 62 60 60 59 57 57 57 61 61 62 63 62 63 61 61 64 64 63
24 27 31 37 57 60 61 60 62 63 65 67 67 66 63 61 60 59 57 57 58 61 62 62 62 60 61 61 62 63 64 63
36 34 31 36 39 60 61 59 61 62 63 65 66 67 64 63 60 59 57 58 59 60 61 61 62 59 59 59 61 62 62 62
42 44 43 37 38 43 62 62 61 62 62 64 66 66 65 63 60 60 60 58 59 62 62 62 61 60 57 61 61 61 61 61
45 46 46 44 41 40 48 62 62 61 61 62 65 66 66 64 61 60 60 59 59 61 62 61 61 59 58 61 62 61 61 62
44 45 48 47 38 35 35 54 61 61 61 61 64 66 66 65 62 61 61 60 59 62 61 60 60 59 59 60 61 61 62 62
41 41 44 48 43 34 33 34 59 61 61 61 63 65 66 65 64 62 62 61 61 61 60 59 59 60 58 57 55 57 60 59
38 39 42 45 50 36 33 33 47 60 61 61 62 65 65 65 65 62 63 62 61 62 61 60 58 60 59 56 52 51 53 57
36 38 40 44 48 46 32 27 36 55 61 61 62 64 65 64 64 63 64 62 61 62 62 61 59 59 60 57 55 51 51 54
36 36 38 43 48 50 33 32 35 53 59 60 62 63 64 64 64 64 64 63 62 62 61 62 61 59 58 58 57 55 53 50
35 36 37 41 46 49 37 32 38 53 56 59 60 62 63 63 63 64 64 63 63 63 62 63 61 60 58 58 57 55 54 52
34 35 36 40 48 44 36 36 34 53 56 59 58 61 63 63 63 63 64 64 63 64 63 63 62 61 60 58 58 56 56 54
34 34 36 39 48 34 34 36 34 52 57 58 57 56 59 63 63 63 64 64 64 64 63 63 63 63 61 60 58 57 57 56

GFSFLT2_sfc_30mbdewp_144.txt.gz
Dewpoint
71 70 70 70 70 69 69 68 69 70 71 71 70 69 69 69 69 68 69 69 69 68 68 68 68 68 67 66 65 65 65 61
66 70 69 70 70 69 69 68 68 69 70 70 70 69 69 69 69 68 69 68 68 68 68 68 67 67 66 65 64 64 65 65
64 66 69 70 70 70 69 69 68 68 69 69 69 69 68 68 67 67 68 68 68 68 67 67 67 67 66 65 65 65 63 65
61 64 65 66 66 69 69 69 68 68 68 69 69 68 67 65 65 66 67 67 68 67 67 67 66 66 66 65 65 64 65 66
35 55 64 65 65 66 67 67 67 67 67 68 68 66 67 65 66 66 66 66 67 67 67 66 65 64 65 65 64 65 61 65
33 38 43 64 64 64 65 65 66 66 67 66 68 67 66 65 66 65 65 65 64 64 65 64 64 64 64 63 64 65 64 65
31 35 38 44 63 64 64 63 65 65 66 67 68 66 65 66 64 64 63 64 63 63 63 63 63 63 63 64 64 64 64 65
40 43 42 41 41 50 63 65 64 66 66 67 68 66 66 65 64 63 62 62 62 63 62 63 63 64 64 63 64 64 65 65
45 44 46 48 48 40 44 63 64 65 66 67 68 67 66 65 63 63 61 60 61 62 63 63 63 64 63 64 63 64 64 64
44 45 46 48 50 49 42 39 62 64 65 66 67 67 67 66 63 62 61 61 62 62 63 62 62 62 62 62 63 63 63 64
41 44 46 49 49 50 50 42 41 62 64 65 67 66 67 66 63 62 61 61 61 62 61 62 61 61 61 61 62 62 63 63
39 40 42 44 45 47 50 45 39 45 63 63 66 66 66 66 63 63 62 61 61 62 61 62 62 61 60 60 61 62 62 62
38 38 39 40 41 43 46 48 41 39 61 63 64 66 66 66 64 63 62 60 61 62 62 62 62 61 61 61 61 61 62 62
36 37 38 38 39 41 43 46 48 38 46 61 64 66 66 66 64 62 62 60 61 62 62 61 61 61 59 57 56 57 59 61
35 36 36 37 38 39 41 45 48 44 36 57 61 64 66 65 65 63 62 61 61 62 62 61 60 60 60 57 54 52 56 59
34 34 35 35 37 38 41 43 45 48 37 40 60 61 65 65 65 63 62 61 61 62 62 61 60 59 60 58 56 54 53 55
33 33 34 35 36 38 41 43 45 49 42 35 55 60 63 65 65 64 63 62 61 62 62 61 61 60 59 58 57 58 57 55
33 33 34 34 35 37 40 43 47 49 46 36 54 59 60 64 64 64 63 63 62 62 62 61 61 60 61 59 58 57 56 55
33 33 34 34 35 37 40 45 49 49 48 31 45 57 59 61 63 64 63 64 62 63 62 62 62 61 60 59 59 58 57 55
32 34 33 33 35 37 40 45 49 46 42 35 35 56 58 56 62 63 63 64 63 63 63 62 63 61 61 59 59 59 58 56

GFSFLT2_sfc_30mbdewp_147.txt.gz
Dewpoint
69 69 70 70 69 68 68 68 69 70 70 70 70 69 69 69 69 68 68 69 69 68 68 68 67 67 68 67 65 63 62 59
70 69 69 69 69 69 68 68 68 69 70 70 69 69 69 68 68 68 68 69 68 68 67 67 67 67 67 66 65 65 60 60
65 69 69 69 69 68 69 68 68 68 69 69 69 69 68 68 68 68 67 68 68 68 67 67 67 67 66 65 64 64 62 63
37 41 68 69 70 69 68 68 68 68 68 69 69 68 68 68 67 67 67 67 68 68 67 67 67 66 66 65 65 64 65 66
34 38 39 54 65 68 68 68 68 68 67 68 68 68 67 67 66 66 67 67 67 67 67 66 66 65 65 65 65 64 64 62
45 45 46 47 49 59 66 66 68 67 67 67 68 67 66 66 65 65 66 66 66 66 66 66 65 65 65 65 65 62 63 62
44 45 46 47 48 50 51 59 65 66 67 67 68 66 66 65 65 65 65 65 65 65 64 65 64 64 65 64 65 64 64 61
41 42 44 46 47 49 51 51 50 65 65 66 66 67 66 65 65 65 64 64 64 64 63 63 63 64 63 64 64 64 64 64
39 39 41 42 44 45 46 48 51 51 64 65 67 67 66 66 65 64 63 63 63 63 63 63 63 64 63 64 64 64 64 64
38 39 39 41 42 43 44 45 48 51 52 65 66 68 67 66 65 64 63 62 62 62 63 63 62 63 62 63 63 64 64 63
37 37 37 38 39 40 42 42 45 49 50 51 65 66 68 66 66 64 63 62 62 62 62 62 62 62 62 62 62 64 63 63
36 36 36 36 38 38 38 40 42 45 49 48 50 64 66 67 65 64 62 61 61 62 61 62 61 61 62 61 62 63 63 63
35 35 35 34 35 36 36 37 39 42 44 47 48 58 64 66 65 65 62 60 61 61 61 61 60 61 60 60 60 61 61 61
34 35 34 34 34 35 36 37 38 40 42 45 48 50 61 64 64 64 63 60 61 61 60 61 61 61 59 57 56 57 60 61
34 34 33 33 34 35 35 36 38 39 42 45 48 49 54 62 63 64 63 61 60 61 60 60 59 61 59 56 54 53 55 58
34 34 33 33 34 34 35 35 36 38 41 43 45 48 47 59 62 63 63 62 60 61 61 60 59 60 59 57 55 55 53 54
33 33 33 32 34 34 34 35 37 39 40 42 45 47 50 48 61 61 62 62 60 61 61 60 60 59 59 57 56 56 56 55
32 33 32 33 34 34 35 36 37 38 40 42 44 47 49 44 58 61 55 62 61 61 61 60 60 60 60 58 56 54 56 55
32 33 32 33 34 34 35 36 38 40 42 45 47 48 49 47 55 58 50 57 62 61 62 61 60 59 60 59 58 55 57 56
32 33 32 33 33 34 35 37 39 41 43 46 50 49 48 51 57 56 55 52 55 62 62 61 60 60 60 59 59 58 58 56

GFSFLT2_sfc_30mbdewp_150.txt.gz
Dewpoint
69 69 69 68 68 68 68 68 69 70 70 70 70 69 69 69 69 69 68 68 68 68 67 67 67 67 67 66 64 63 63 64
69 69 69 68 68 67 67 67 67 68 69 70 69 69 69 68 68 68 68 68 68 68 67 67 67 67 67 66 64 63 61 61
43 49 63 67 68 68 68 67 67 67 68 69 69 69 68 68 68 68 68 68 68 67 67 67 67 67 66 66 64 64 61 61
46 46 48 52 54 64 68 68 67 67 67 68 68 68 68 68 68 67 67 68 68 67 67 66 67 66 66 65 65 64 62 63
43 44 44 47 51 54 56 60 66 67 67 67 67 68 68 67 67 67 67 67 67 67 67 66 66 66 65 65 64 64 64 65
40 41 41 43 45 51 54 55 56 56 65 67 67 67 67 67 66 66 66 67 66 66 66 66 65 65 65 65 64 63 63 61
39 39 39 40 42 43 45 48 51 55 56 61 67 67 66 66 66 66 66 66 66 65 65 65 65 65 65 65 64 63 62 60
39 38 38 38 39 40 41 43 45 47 53 56 61 67 67 66 65 65 65 65 65 65 64 64 64 64 64 64 64 63 63 61
37 37 37 37 37 38 40 41 42 43 46 50 53 63 67 66 65 65 65 65 64 64 64 64 63 64 63 64 64 63 64 61
36 37 37 36 35 37 39 39 40 41 42 46 51 52 60 66 66 65 65 64 64 63 63 63 62 62 63 64 64 64 64 63
35 36 36 36 35 36 37 38 38 40 41 43 47 50 52 63 65 65 65 64 63 63 63 62 62 62 62 63 64 63 63 63
35 35 35 35 34 34 35 36 37 38 39 40 42 44 47 52 61 64 65 63 62 62 62 63 62 61 62 62 62 63 63 63
34 34 34 34 33 33 34 34 35 37 38 39 41 43 45 48 51 62 63 64 62 62 62 62 61 61 61 60 60 61 62 62
33 33 34 34 33 33 34 34 35 36 38 39 41 43 46 47 48 53 62 62 63 61 61 60 60 61 59 59 57 58 60 61
33 33 33 34 33 33 34 35 35 35 37 38 40 42 43 45 48 51 57 62 62 61 61 60 59 60 59 57 55 55 57 59
33 33 33 33 33 33 33 33 33 35 36 38 39 41 42 44 47 49 51 60 60 61 61 60 59 59 59 58 56 55 55 54
32 33 33 33 33 34 34 33 34 35 37 38 39 41 42 44 47 49 50 57 60 61 61 60 60 59 59 59 55 55 55 54
31 32 32 33 33 34 34 34 34 35 36 38 40 41 44 45 47 49 50 52 60 59 61 60 60 59 60 58 57 54 54 54
30 31 32 32 33 34 34 35 35 36 37 39 40 42 44 45 48 49 49 49 58 58 57 56 60 60 60 59 58 56 56 55
30 31 31 32 33 33 34 35 36 36 37 38 40 42 45 48 49 50 50 52 58 56 55 52 52 60 59 60 59 58 56 57

GFSFLT2_sfc_30mbdewp_153.txt.gz
Dewpoint
57 65 69 68 68 68 67 67 67 68 69 70 70 70 69 69 69 68 68 68 68 68 67 67 67 67 67 66 64 64 64 65
47 49 52 55 58 67 68 68 67 67 68 69 69 69 69 68 68 68 68 68 68 67 67 67 67 67 67 65 64 64 63 64
43 44 47 50 53 55 56 60 64 67 67 68 68 68 68 68 68 68 68 68 68 67 67 67 67 67 67 66 64 63 62 60
41 41 43 43 48 53 54 56 58 57 62 66 67 67 68 68 68 67 67 68 67 67 67 66 66 66 66 65 64 64 61 60
40 39 40 41 43 47 49 51 54 56 54 57 63 67 67 67 67 67 67 67 67 67 66 66 66 65 65 65 64 64 63 61
39 38 38 38 40 41 43 46 47 50 49 51 55 64 66 66 67 66 66 66 66 66 66 66 65 65 65 64 64 64 64 63
38 38 37 36 36 37 39 41 43 45 46 49 51 53 60 66 66 66 66 66 66 66 66 64 64 64 65 64 64 63 63 63
37 37 37 36 35 36 38 40 40 40 42 45 48 52 54 62 65 65 66 66 66 65 65 64 64 64 64 64 64 63 63 61
35 36 36 36 35 35 37 38 39 39 40 41 43 46 51 53 57 64 65 65 65 65 64 64 64 63 63 64 64 63 63 62
35 35 36 36 35 35 35 37 38 38 39 40 41 42 44 47 51 58 64 65 65 64 64 63 63 62 62 63 64 63 63 62
33 34 35 35 35 35 35 36 36 37 38 38 40 41 42 44 46 49 55 64 64 64 63 63 62 62 62 62 63 63 63 63
33 34 34 35 35 34 34 35 36 36 37 38 39 40 42 43 45 47 49 55 64 63 63 62 62 61 62 62 62 62 63 63
33 33 33 34 33 33 33 33 34 36 36 37 39 40 41 42 44 47 48 48 59 62 62 61 62 62 60 59 60 61 62 62
32 32 33 34 33 33 34 34 35 35 36 37 38 39 41 42 42 44 46 50 50 60 61 61 61 61 59 58 56 58 60 61
30 32 33 34 34 33 34 34 35 35 35 36 37 39 40 41 42 43 45 47 49 52 61 61 60 61 60 57 56 54 58 60
30 31 33 33 34 33 33 33 33 34 35 36 37 38 40 42 41 43 44 46 48 50 59 61 60 59 60 59 57 56 55 55
30 31 32 33 33 33 34 34 34 35 35 36 37 38 40 42 43 42 44 45 48 49 54 60 61 59 59 59 56 55 55 54
29 30 31 32 32 32 32 33 34 34 35 36 37 37 39 41 42 43 44 45 47 49 50 59 59 61 60 59 57 55 54 53
29 30 30 31 31 32 32 32 34 35 35 35 36 36 38 40 42 44 45 46 47 50 51 56 58 58 60 59 59 56 55 55
29 29 29 30 31 31 32 32 33 34 35 36 36 37 38 40 41 43 45 46 48 49 50 54 59 58 55 54 59 58 57 55

GFSFLT2_sfc_30mbdewp_156.txt.gz
Dewpoint
44 47 52 54 56 58 60 62 65 67 67 68 69 69 69 69 69 68 68 68 68 68 67 67 67 67 67 66 66 66 65 64
41 42 44 50 50 52 56 57 57 58 64 66 66 67 69 69 68 68 68 68 68 67 67 66 67 67 67 66 65 64 64 64
39 40 41 44 47 48 49 52 53 56 54 59 63 65 66 68 68 68 68 68 68 67 67 67 66 67 67 65 64 64 63 63
38 38 39 41 42 45 47 48 50 53 49 52 52 62 64 66 67 67 67 67 67 67 67 67 66 66 66 66 65 64 63 62
39 37 37 37 39 41 43 45 46 46 46 48 52 54 61 66 66 66 67 67 67 67 67 66 65 65 65 65 65 64 63 62
38 37 36 36 37 38 40 41 43 43 44 45 46 49 53 57 64 66 66 66 66 66 66 66 65 64 63 63 63 64 63 63
37 37 36 36 35 36 38 39 40 41 41 43 44 45 48 52 55 63 66 66 66 66 66 65 64 64 63 63 64 64 63 63
35 36 36 36 35 35 36 37 38 39 40 41 42 44 45 48 50 54 59 66 66 66 65 65 64 64 63 63 64 64 63 63
34 35 36 35 35 35 35 36 38 38 38 39 40 41 43 44 45 48 52 60 66 65 65 65 64 63 63 64 63 64 63 62
34 35 35 35 35 35 35 36 36 37 38 38 39 41 42 42 43 44 46 48 53 64 64 63 62 63 63 63 63 63 63 63
33 34 34 35 35 35 35 35 36 37 37 38 39 39 41 42 43 44 46 47 48 53 63 63 62 62 62 62 62 62 63 63
33 34 34 35 35 34 35 35 36 36 37 37 38 39 41 42 42 43 45 47 48 49 56 63 63 62 61 61 62 62 62 62
32 32 33 34 34 33 33 34 34 35 36 37 38 38 40 40 41 42 43 44 46 49 49 56 61 62 60 60 60 61 61 61
30 31 33 33 34 34 34 34 35 35 36 37 37 38 39 39 40 42 41 42 43 45 49 50 60 62 59 58 56 57 59 60
30 30 32 33 33 34 34 34 35 35 35 36 37 38 39 39 40 42 42 42 42 43 46 48 52 59 61 57 55 54 56 60
29 30 31 32 33 33 33 32 32 34 35 36 37 38 38 39 41 42 43 43 43 44 45 47 49 55 59 61 58 56 54 55
29 30 30 31 32 33 32 32 32 33 35 35 36 37 38 38 39 41 42 43 44 45 45 45 48 50 57 58 59 56 56 54
29 29 29 30 31 32 31 32 32 32 33 34 35 36 37 37 39 39 41 43 44 45 46 46 47 48 50 57 58 56 54 54
28 29 28 29 30 31 31 32 32 32 33 33 34 34 36 37 38 38 39 41 43 44 45 47 48 48 49 53 58 58 56 55
28 28 28 29 30 30 31 32 32 32 32 33 33 35 35 36 37 38 39 40 42 44 45 47 48 49 50 51 56 55 59 55

GFSFLT2_sfc_30mbdewp_162.txt.gz
Dewpoint
47 49 49 50 50 52 53 54 52 53 54 54 58 64 65 67 67 68 68 68 68 68 68 68 67 67 67 66 67 67 64 64
44 44 47 49 49 49 50 50 49 48 49 51 52 57 62 65 65 67 68 68 68 68 68 67 67 66 67 66 66 66 65 63
43 43 44 45 42 46 47 47 46 46 46 48 49 52 57 61 64 66 66 67 67 67 67 67 67 66 66 66 66 64 63 63
40 42 43 42 39 44 44 45 44 45 46 47 45 47 48 49 57 64 64 66 66 67 67 67 67 63 62 66 65 62 62 62
38 40 43 43 41 41 41 42 43 43 45 47 46 46 46 45 46 52 60 64 63 61 63 64 62 61 59 60 63 63 61 61
38 39 41 42 41 39 40 40 42 42 44 46 45 44 45 45 44 45 45 54 59 64 60 60 61 62 62 62 63 64 63 62
38 39 41 41 40 41 42 42 42 44 43 45 46 45 45 45 45 44 43 44 46 58 59 64 61 61 62 64 63 64 64 63
38 39 41 41 40 42 41 41 41 42 42 45 46 46 46 44 45 44 44 44 44 46 50 53 60 64 60 64 64 63 64 63
37 36 40 41 39 40 40 40 41 41 42 44 45 45 45 46 44 44 44 46 46 45 45 48 56 63 64 64 65 64 64 63
36 37 39 40 40 39 39 40 40 41 41 42 44 45 45 45 44 44 46 45 45 46 46 45 45 55 60 64 64 64 63 62
34 36 38 39 39 39 39 40 39 39 40 41 44 44 44 45 43 44 46 45 45 45 45 47 46 46 54 57 63 64 64 62
34 34 37 38 36 36 35 36 37 38 39 40 43 43 44 44 43 44 45 44 44 45 45 45 46 46 46 51 58 63 64 64
32 32 34 34 33 33 33 33 35 36 38 40 42 42 43 43 43 43 44 44 44 45 45 44 44 46 46 47 51 58 62 62
30 31 32 33 31 33 34 34 34 35 36 39 40 41 42 41 42 42 42 42 43 44 44 43 43 44 46 47 46 48 53 59
29 30 31 32 34 31 32 32 31 32 34 35 37 39 40 41 41 41 42 41 41 42 43 43 43 44 44 47 45 42 44 48
30 31 30 30 33 32 33 31 31 33 34 35 36 38 38 39 40 40 41 41 41 41 42 43 44 43 43 44 46 48 49 50
31 30 30 31 33 33 32 32 33 33 34 35 35 35 37 38 39 40 40 40 40 40 41 42 43 44 44 44 43 45 46 51
31 30 29 31 32 33 33 33 34 34 34 33 33 34 35 36 37 38 39 39 39 40 40 41 40 42 44 44 44 42 43 45
29 29 28 30 31 32 32 33 33 32 33 32 33 32 33 34 36 37 37 38 39 39 38 39 40 41 43 43 45 45 45 46
30 29 28 29 30 31 31 32 31 32 33 33 32 32 33 34 35 35 36 38 38 38 38 38 39 40 42 43 44 45 47 46

GFSFLT2_sfc_30mbdewp_168.txt.gz
Dewpoint
55 55 57 54 51 51 50 49 49 50 51 50 50 53 56 63 64 67 68 69 69 68 68 68 68 67 67 67 66 66 66 66
50 50 52 52 53 48 49 46 46 48 49 50 49 50 55 57 63 61 61 64 65 67 68 68 68 67 67 66 66 66 66 65
49 49 49 47 47 48 50 47 47 48 49 52 51 51 50 47 46 48 54 58 63 64 65 66 67 67 66 66 66 66 65 65
47 48 49 48 43 48 48 48 48 49 50 52 51 52 52 48 49 47 50 52 59 62 65 65 66 66 65 64 65 65 63 62
43 47 49 48 46 46 46 48 47 49 49 52 52 52 51 51 49 49 49 46 47 47 49 64 65 65 65 64 65 64 64 62
43 46 47 48 46 46 47 46 47 48 49 52 51 51 51 51 50 50 48 48 47 48 47 50 51 57 62 64 65 64 64 63
43 45 46 46 47 47 47 47 46 48 48 50 51 51 51 51 50 50 49 49 49 50 50 49 49 49 52 59 62 65 64 63
43 43 45 45 45 45 45 47 45 46 47 48 50 50 50 49 49 49 48 50 50 50 50 50 50 49 49 50 57 62 65 65
39 42 44 44 44 44 43 46 45 44 45 47 49 49 49 49 48 48 49 49 50 49 48 48 48 48 49 50 51 56 61 64
39 39 43 43 44 43 43 44 44 43 44 46 48 48 48 48 47 48 49 49 48 49 49 48 48 48 47 46 47 49 53 58
38 41 42 43 42 42 42 41 41 41 42 44 45 46 46 47 46 47 47 46 47 47 47 47 47 47 47 46 46 47 48 49
37 39 40 41 40 39 38 40 38 40 40 42 44 45 45 46 45 46 45 45 45 46 46 45 45 46 46 46 47 48 47 48
35 38 37 36 35 35 36 36 37 38 39 40 43 43 44 44 44 44 44 43 44 45 43 43 43 44 45 44 44 45 46 47
34 34 35 35 34 35 36 36 36 36 39 40 42 42 42 40 43 43 43 42 42 42 41 41 41 44 43 43 42 42 45 44
32 33 34 36 37 34 36 35 35 36 37 38 40 40 40 41 41 42 42 40 39 40 40 40 41 41 43 43 41 40 42 43
33 33 33 35 37 36 36 34 33 35 36 39 39 39 39 39 40 41 41 40 39 38 39 40 41 40 41 41 43 43 41 40
34 33 33 36 37 37 36 36 36 35 36 37 38 38 39 39 40 40 40 38 38 38 38 39 39 40 39 41 41 42 42 42
35 32 33 35 35 36 36 36 36 35 35 36 37 37 37 38 38 39 38 37 37 36 37 38 38 39 39 40 40 40 40 41
34 31 31 33 34 34 35 35 34 34 34 35 36 36 36 37 37 38 37 35 35 35 36 37 37 37 37 38 39 39 41 40
30 30 30 32 33 33 34 34 34 34 35 35 35 35 36 36 37 36 36 34 34 35 35 35 36 36 36 37 37 38 39 40

GFSFLT2_sfc_30mbdewp_174.txt.gz
Dewpoint
56 56 54 53 52 50 51 52 56 55 54 55 55 55 55 55 55 57 57 57 59 63 64 66 67 67 67 67 66 66 66 65
54 54 53 48 50 50 51 54 54 54 54 54 54 53 54 54 55 55 55 56 57 57 58 63 65 65 66 66 66 66 65 65
48 48 49 49 51 52 52 54 54 52 51 53 52 52 52 51 53 55 55 55 54 54 53 52 55 61 65 65 65 66 65 65
47 47 46 46 48 47 48 50 51 50 50 50 51 50 52 51 51 53 53 52 51 52 52 51 50 50 51 52 58 64 65 65
47 46 47 47 47 47 47 48 50 50 49 50 50 50 50 50 50 51 50 50 49 49 50 50 50 50 50 50 53 55 60 64
47 46 46 47 47 47 47 47 50 50 49 49 49 48 48 48 49 50 49 49 49 50 51 50 49 49 49 49 49 52 56 62
46 45 46 46 46 47 45 47 49 49 48 49 48 47 47 48 48 48 48 48 49 49 49 48 48 48 49 48 48 48 49 51
45 45 45 45 45 45 44 46 48 48 47 48 47 47 46 47 47 47 47 48 48 48 47 47 46 47 47 48 48 48 48 49
44 44 45 44 44 45 43 45 46 46 46 46 46 46 45 46 46 46 46 46 46 46 46 45 45 45 45 45 46 46 47 47
44 44 43 43 43 43 43 44 45 45 46 45 45 45 45 45 45 44 45 44 44 45 44 42 43 43 43 42 43 45 46 47
42 42 42 42 42 42 43 42 44 44 45 43 44 44 44 44 44 44 43 42 42 42 42 41 41 41 40 42 43 42 44 45
41 40 40 41 41 42 40 41 42 42 43 43 43 43 43 43 43 42 42 41 40 40 40 40 40 39 39 40 40 42 45 45
38 37 36 38 36 36 36 37 40 41 41 42 42 41 42 42 42 42 41 40 39 39 39 38 38 38 38 37 41 41 45 39
37 35 35 35 36 36 36 37 39 41 40 41 41 41 42 41 41 40 40 39 38 38 37 36 37 39 36 38 37 37 38 36
35 35 35 37 37 37 37 37 37 38 39 38 40 42 41 40 40 39 38 38 37 37 36 35 36 36 38 39 35 33 35 38
35 36 36 37 38 37 36 35 36 37 38 38 40 40 39 40 39 38 37 37 36 36 35 35 37 36 36 35 36 37 35 33
35 36 37 37 37 37 36 36 36 37 37 37 38 39 38 39 38 37 36 36 35 35 35 36 36 35 36 36 35 35 34 33
35 36 36 36 36 36 35 35 35 35 35 36 36 37 37 36 36 35 35 34 33 33 34 34 34 35 36 36 35 34 33 33
35 35 35 35 35 35 35 35 35 34 35 34 35 35 35 34 34 33 33 33 32 32 33 33 33 32 33 34 35 34 34 32
34 34 34 34 35 35 36 36 35 35 35 34 33 33 34 34 33 32 32 31 31 30 30 30 31 33 30 31 31 30 30 30